User: anonymous   Login
Location: Unnamed
(51.8936°N, 11.0665°E)
Time: 21:08:02
(UTC+02:00)
Language:

XW-2C - Orbit

View from above orbital plane
View from above orbital plane
View from above satellite
View from above satellite

Ground track
Ground track

The orbit data is extracted from the following two-line orbital elements,

1 40906U 15049H   21262.37031410  .00001017  00000-0  54883-4 0  9991
2 40906  97.4890 263.5759 0013466 216.4477 251.0227 15.16959249331801
Epoch (UTC): 19 September 2021 08:53:15
Eccentricity: 0.0013466
inclination: 97.4890°
perigee height: 506 km
apogee height: 524 km
right ascension of ascending node: 263.5759°
argument of perigee: 216.4477°
revolutions per day: 15.16959249
mean anomaly at epoch: 251.0227°
orbit number at epoch: 33180

The dashed part of the orbit path shows where the satellite is in the earth's shadow,  

DLR